Location: Domont
(49.0278°N, 2.3264°E)
Time: 00:31:18
(UTC+00:00)

CENTAUR R/B - Pass Details

Date: 16 October 2021
Orbit: 728 x 1459 km, 63.4° (Epoch: 26 November)

Event Time Altitude Azimuth Distance (km) Brightness Sun altitude
Rises 20:43:49 0° 308° (NW) 3,921 6.6 -36.4°
Reaches altitude 10° 20:46:39 10° 318° (NW) 3,072 5.8 -36.8°
Enters shadow 20:53:17 34° 20° (NNE) 1,985 4.1 -37.7°
